STARLINK-5941 (56013 NORAD) Tracking and Keplerian Element Data

This shows tracking and keplerian element data for the satellite.

Feedback or suggestion? Click here.




ElementValue
Catalog56013
NameSTARLINK-5941
Epoch Orbit712
Epoch Day127.00001157
Epoch Year2023
RAAN297.4539
Inclination43.0004
Eccentricity0.0001566
Argument of Perigee272.8906
Mean Anonmoly15.7061
Mean Motion15.38937752
Decay Rate-0.00922785
L11 56013U 23042AD 23127.00001157 -.00922785 00000+0 -25531-1 0 9996
L22 56013 43.0004 297.4539 0001566 272.8906 15.7061 15.38937752 7129



Live tracking and technical data element details for STARLINK-5941 (NORAD 56013). STARLINK-5941 can be tracked NOW for your location showing map with azimuth and elevation plus other details from your city location.







IsCatalogInMostPopularTable: catalog: 56013, numindb: 1
Update: records affected: 1



GetName: 56013 STARLINK-5941

Hit Count: updated at: Sat, 03 Jun 2023 19:05:59 GMT